Location: London
(42.9830°N, 81.2500°W)
Time: 03:59:34
(UTC-05:00)

Amateur Radio Satellites - All Passes

Search period start: 06 March 2015 03:29
Search period end: 07 March 2015 03:29
Location: London, 42.9830°N, 81.2500°W

Satellite Date Start Highest point End Downlink Frequencies (MHz)
Time Altitude Azimuth
Gurwin Techsat 1B 06 Mar 03:31:39 03:36:55 63° 288° (WNW) 03:42:10 435.225
Oscar 19 06 Mar 03:32:57 03:36:22 18° 298° (WNW) 03:39:36 437.125/150
STARS 06 Mar 03:34:24 03:37:58 23° 267° (W) 03:41:26 437.465
MOZHAYETS 4 06 Mar 03:36:58 03:40:55 30° 69° (ENE) 03:44:57
KKS-1 06 Mar 03:37:47 03:40:24 15° 270° (W) 03:42:49 437.445
ITAMSAT 1 06 Mar 03:38:16 03:43:11 42° 291° (WNW) 03:48:02 435.822/435.867
HORYU 2 06 Mar 03:53:43 03:58:09 65° 102° (ESE) 04:02:35 437.375
JAS-2 06 Mar 04:02:31 04:09:21 36° 93° (E) 04:16:30 435.910
PCSat 06 Mar 04:08:01 04:12:36 27° 46° (NE) 04:17:14 145.827
AO-7 06 Mar 04:12:21 04:20:18 49° 100° (E) 04:28:16 29.400- 29.500
YUBILEINY 06 Mar 04:35:50 04:43:46 37° 274° (W) 04:51:30 435.215
AUBIESAT-1 06 Mar 04:49:37 04:52:09 19° 262° (W) 04:54:43 437.475
M-CUBED/EXP-1 PRIME 06 Mar 04:51:14 04:53:30 17° 263° (W) 04:55:45 437.505
RS-15 06 Mar 04:52:15 05:01:10 26° 16° (NNE) 05:10:32 29.354- 29.394
PRISM 06 Mar 04:57:11 04:59:46 17° 64° (ENE) 05:02:28 437.425
MOZHAYETS 4 06 Mar 05:14:13 05:18:10 28° 266° (W) 05:22:05
HORYU 2 06 Mar 05:31:57 05:34:22 14° 297° (WNW) 05:36:36 437.375
STRAND 1 06 Mar 05:44:40 05:49:16 35° 68° (ENE) 05:53:57 437.568
CUBESAT XI-V 06 Mar 05:45:51 05:50:24 52° 73° (ENE) 05:55:00 437.345
JAS-2 06 Mar 05:47:18 05:54:34 53° 291° (WNW) 06:02:05 435.910
PCSat 06 Mar 05:51:03 05:56:19 51° 246° (WSW) 06:01:32 145.827
Cubesat XI-IV 06 Mar 05:54:52 05:59:11 25° 93° (E) 06:03:36 437.490
CUTE-I 06 Mar 06:02:31 06:07:07 29° 94° (E) 06:11:44 437.470
AO-7 06 Mar 06:05:24 06:13:02 41° 299° (WNW) 06:20:32 29.400- 29.500
PRISM 06 Mar 06:30:55 06:34:56 47° 261° (W) 06:38:59 437.425
AIST 1 06 Mar 06:38:23 06:42:29 42° 93° (E) 06:46:41
GONETS M04 06 Mar 06:53:16 06:57:47 15° 55° (NE) 07:02:50
RS-15 06 Mar 07:05:33 07:16:43 58° 46° (NE) 07:28:26 29.354- 29.394
STRAND 1 06 Mar 07:23:59 07:28:31 30° 265° (W) 07:33:01 437.568
CUBESAT XI-V 06 Mar 07:25:03 07:28:13 17° 270° (W) 07:31:14 437.345
SO-50 06 Mar 07:26:51 07:27:48 11° 26° (NNE) 07:28:54 436.795
Cubesat XI-IV 06 Mar 07:34:25 07:39:31 44° 291° (WNW) 07:44:33 437.490
JAS-2 06 Mar 07:35:37 07:38:15 12° 308° (NW) 07:40:28 435.910
CUTE-I 06 Mar 07:42:20 07:47:18 39° 292° (WNW) 07:52:11 437.470
CANX-2 06 Mar 07:59:25 08:00:29 11° 87° (E) 08:01:48 2200.000
ISS 06 Mar 08:06:59 08:10:11 67° 144° (SE) 08:13:24 145.825
GOMX 1 06 Mar 08:13:25 08:15:54 15° 89° (E) 08:18:30 467.674
CUTE 1.7 + AOD 2 06 Mar 08:16:10 08:18:43 16° 90° (E) 08:21:25 437.475
AIST 1 06 Mar 08:17:22 08:20:27 18° 291° (WNW) 08:23:24
BRITE-PL 06 Mar 08:27:31 08:31:34 34° 95° (E) 08:35:26 437.365/2234.400
DOVE 4 06 Mar 08:29:42 08:32:10 16° 90° (E) 08:34:45 437.250
O/OREOS (USA 219) 06 Mar 08:40:21 08:44:47 53° 108° (ESE) 08:49:16 437.305
AAUSAT CUBESAT 2 06 Mar 08:44:56 08:47:57 19° 92° (E) 08:51:05 437.432
GONETS M04 06 Mar 08:47:54 08:56:40 72° 79° (E) 09:05:27
COMPASS 1 06 Mar 08:50:19 08:53:49 25° 94° (E) 08:57:22 437.405
ANTELSAT 06 Mar 08:55:39 08:57:46 14° 64° (ENE) 09:00:02 437.575/2403.000
HO-68 06 Mar 09:00:26 09:07:27 54° 100° (E) 09:14:28 435.675
SO-50 06 Mar 09:05:01 09:09:44 42° 49° (NE) 09:14:25 436.795
Oscar 11 06 Mar 09:06:28 09:09:10 17° 90° (E) 09:12:02 145.826/435.025
RS-15 06 Mar 09:18:18 09:29:05 47° 248° (WSW) 09:40:08 29.354- 29.394
SEEDS 06 Mar 09:23:05 09:27:20 73° 101° (E) 09:31:34 437.485
QB50P1 06 Mar 09:24:31 09:26:57 15° 64° (ENE) 09:29:32 145.935-145.965
DELFI C3 06 Mar 09:29:00 09:32:10 22° 93° (E) 09:35:26 145.870
QB50P2 06 Mar 09:29:25 09:32:11 18° 65° (ENE) 09:35:06 145.880/145.840
CANX-2 06 Mar 09:32:43 09:36:58 67° 285° (WNW) 09:41:12 2200.000
DX 1 06 Mar 09:37:42 09:40:22 16° 91° (E) 09:43:10 434.975-435.025
CUBEBUG 2 06 Mar 09:39:11 09:42:40 26° 94° (E) 09:46:15 437.445
DUCHIFAT 1 06 Mar 09:40:25 09:43:38 22° 67° (ENE) 09:46:57 145.980
ISS 06 Mar 09:44:04 09:46:50 25° 342° (NNW) 09:49:37 145.825
CINEMA 3 06 Mar 09:44:41 09:48:47 55° 100° (E) 09:52:52 145.822/145.860
GOMX 1 06 Mar 09:50:19 09:54:27 45° 288° (WNW) 09:58:25 467.674
CUTE 1.7 + AOD 2 06 Mar 09:50:51 09:54:57 47° 287° (WNW) 09:59:03 437.475
UNISAT 6 06 Mar 09:50:57 09:55:10 50° 73° (ENE) 09:59:21 437.425
FUNcube-1 06 Mar 09:58:40 10:02:16 29° 95° (E) 10:05:57 145.935
AISAT 06 Mar 10:00:09 10:01:41 12° 88° (E) 10:03:27 437.250
ZACube-1 06 Mar 10:01:20 10:05:03 31° 96° (E) 10:08:49 437.345
UKube-1 06 Mar 10:01:22 10:05:04 27° 95° (E) 10:08:48 .
POPSAT HIP 1 06 Mar 10:03:01 10:06:57 37° 71° (ENE) 10:10:55 437.405
POLYITAN 1 06 Mar 10:04:31 10:08:30 39° 71° (ENE) 10:12:31 437.675
DOVE 4 06 Mar 10:06:16 10:10:18 43° 288° (WNW) 10:14:13 437.250
BRITE-PL 06 Mar 10:06:27 10:09:57 22° 294° (WNW) 10:13:12 437.365/2234.400
VELOX 1 06 Mar 10:07:10 10:09:23 14° 89° (E) 10:11:48 145.980
TIGRISAT 06 Mar 10:13:54 10:18:16 87° 77° (ENE) 10:22:35 435.000
AAUSAT CUBESAT 2 06 Mar 10:19:53 10:23:46 36° 289° (WNW) 10:27:37 437.432
O/OREOS (USA 219) 06 Mar 10:21:16 10:24:35 19° 308° (NW) 10:27:48 437.305
50 SAT 06 Mar 10:24:06 10:26:59 20° 93° (E) 10:29:58 437.505
NANOSAT C BR1 06 Mar 10:24:14 10:28:28 64° 74° (ENE) 10:32:43 145.865
DANDE 06 Mar 10:24:38 10:26:40 20° 73° (ENE) 10:28:47 436.750
COMPASS 1 06 Mar 10:25:52 10:29:32 28° 290° (WNW) 10:33:07 437.405
UWE-3 06 Mar 10:29:15 10:33:26 81° 102° (ESE) 10:37:38 435.000/436.395/437.385
ANTELSAT 06 Mar 10:29:50 10:34:10 61° 259° (W) 10:38:26 437.575/2403.000
CUSAT 1 06 Mar 10:30:21 10:32:48 37° 77° (ENE) 10:35:26 437.405
ESTCUBE 1 06 Mar 10:37:34 10:40:06 15° 89° (E) 10:42:51 437.505/2401.250
Oscar 11 06 Mar 10:41:30 10:45:40 46° 288° (WNW) 10:49:48 145.826/435.025
SO-50 06 Mar 10:45:54 10:50:09 28° 246° (WSW) 10:54:18 436.795
GONETS M04 06 Mar 10:45:57 10:52:48 25° 278° (W) 10:59:21
BUGSAT 1 06 Mar 10:47:20 10:51:37 86° 77° (ENE) 10:55:55 437.445
HO-68 06 Mar 10:48:39 10:54:55 33° 299° (WNW) 11:01:04 435.675
QB50P1 06 Mar 10:58:16 11:02:28 53° 260° (W) 11:06:41 145.935-145.965
SEEDS 06 Mar 11:01:06 11:02:39 12° 297° (WNW) 11:03:59 437.485
QB50P2 06 Mar 11:03:41 11:07:49 45° 262° (W) 11:11:56 145.880/145.840
DELFI C3 06 Mar 11:03:48 11:07:27 31° 290° (WNW) 11:11:03 145.870
HUMSAT D 06 Mar 11:08:34 11:12:43 86° 280° (W) 11:16:51 437.325/437.525
DX 1 06 Mar 11:12:43 11:16:57 48° 288° (WNW) 11:21:07 434.975-435.025
DUCHIFAT 1 06 Mar 11:15:22 11:19:19 35° 263° (W) 11:23:15 145.980
CUBEBUG 2 06 Mar 11:15:52 11:19:23 26° 291° (WNW) 11:22:51 437.445
ISS 06 Mar 11:21:46 11:24:03 17° 2° (N) 11:26:19 145.825
CINEMA 3 06 Mar 11:23:27 11:25:38 14° 296° (WNW) 11:27:38 145.822/145.860
CUBEBUG 1 06 Mar 11:23:59 11:28:09 40° 98° (E) 11:32:17 437.445
UNISAT 6 06 Mar 11:29:41 11:32:19 15° 270° (W) 11:34:46 437.425
TISAT 1 06 Mar 11:32:13 11:32:57 10° 87° (E) 11:33:56 437.305
Oscar 19 06 Mar 11:33:57 11:36:29 14° 60° (ENE) 11:39:16 437.125/150
AISAT 06 Mar 11:34:26 11:38:52 67° 286° (WNW) 11:43:15 437.250
FUNcube-1 06 Mar 11:35:09 11:38:34 24° 291° (WNW) 11:41:55 145.935
UKube-1 06 Mar 11:37:27 11:41:12 28° 292° (WNW) 11:44:53 .
ZACube-1 06 Mar 11:38:01 11:41:19 23° 292° (WNW) 11:44:33 437.345
POPSAT HIP 1 06 Mar 11:39:47 11:43:01 20° 268° (W) 11:46:08 437.405
SPROUT 06 Mar 11:41:13 11:43:49 16° 90° (E) 11:46:35 437.525
POLYITAN 1 06 Mar 11:41:30 11:44:38 19° 268° (W) 11:47:38 437.675
VELOX 1 06 Mar 11:42:02 11:46:26 57° 286° (WNW) 11:50:45 145.980
50 SAT 06 Mar 11:58:32 12:02:05 32° 289° (WNW) 12:05:37 437.505
NANOSAT C BR1 06 Mar 12:03:10 12:04:50 12° 272° (W) 12:06:17 145.865
ESTCUBE 1 06 Mar 12:12:56 12:17:25 56° 287° (WNW) 12:21:51 437.505/2401.250
ISS 06 Mar 12:58:13 13:01:11 32° 22° (NNE) 13:04:09 145.825
SWISSCUBE 06 Mar 13:00:57 13:04:15 19° 91° (E) 13:07:41 437.505
CUBEBUG 1 06 Mar 13:01:00 13:04:17 20° 294° (WNW) 13:07:26 437.445
TISAT 1 06 Mar 13:05:07 13:09:20 68° 285° (WNW) 13:13:30 437.305
BEESAT 06 Mar 13:08:38 13:12:09 21° 92° (E) 13:15:47 436.000
Oscar 19 06 Mar 13:10:07 13:15:16 81° 258° (WSW) 13:20:26 437.125/150
Gurwin Techsat 1B 06 Mar 13:14:41 13:19:13 31° 67° (ENE) 13:23:53 435.225
SPROUT 06 Mar 13:16:06 13:20:14 46° 288° (WNW) 13:24:19 437.525
ITAMSAT 1 06 Mar 13:17:53 13:22:46 42° 69° (ENE) 13:27:43 435.822/435.867
AO-7 06 Mar 13:23:52 13:28:43 18° 48° (NE) 13:33:55 29.400- 29.500
ITUPSAT 1 06 Mar 13:37:59 13:42:30 39° 97° (E) 13:47:01 437.325
JAS-2 06 Mar 14:18:58 14:22:00 15° 54° (NE) 14:25:29 435.910
ISS 06 Mar 14:34:36 14:37:40 40° 220° (SW) 14:40:43 145.825
SWISSCUBE 06 Mar 14:37:47 14:42:27 49° 289° (WNW) 14:47:04 437.505
BEESAT 06 Mar 14:45:40 14:50:16 45° 289° (WNW) 14:54:48 436.000
HORYU 2 06 Mar 14:52:53 14:57:16 67° 74° (ENE) 15:01:41 437.375
Gurwin Techsat 1B 06 Mar 14:54:14 14:59:08 36° 264° (W) 15:04:01 435.225
ITAMSAT 1 06 Mar 14:58:09 15:02:29 25° 267° (W) 15:06:43 435.822/435.867
AO-7 06 Mar 15:11:58 15:20:14 70° 68° (ENE) 15:28:31 29.400- 29.500
ITUPSAT 1 06 Mar 15:16:17 15:20:13 25° 294° (WNW) 15:24:04 437.325
STARS 06 Mar 15:22:16 15:26:38 61° 101° (E) 15:30:57 437.465
KKS-1 06 Mar 15:25:41 15:30:09 80° 285° (WNW) 15:34:34 437.445
BEESAT 3 06 Mar 15:32:18 15:34:47 16° 111° (ESE) 15:37:24 437.485
YUBILEINY 06 Mar 15:40:20 15:48:44 56° 91° (E) 15:57:18 435.215
JAS-2 06 Mar 16:00:24 16:06:02 84° 76° (ENE) 16:12:29 435.910
BEESAT 2 06 Mar 16:01:30 16:04:59 28° 115° (ESE) 16:08:35 435.950
VERMONT LUNAR 06 Mar 16:10:59 16:13:57 26° 158° (SSE) 16:16:56 437.305
AIST 2 06 Mar 16:23:31 16:26:25 19° 112° (ESE) 16:29:29 435.215
AUBIESAT-1 06 Mar 16:28:21 16:31:50 23° 99° (E) 16:35:33 437.475
M-CUBED/EXP-1 PRIME 06 Mar 16:29:55 16:33:36 26° 100° (E) 16:37:33 437.505
HORYU 2 06 Mar 16:32:40 16:34:29 12° 272° (W) 16:36:04 437.375
PHONESAT 2.4 06 Mar 16:45:38 16:48:40 25° 157° (SSE) 16:51:44 2401.200-2431.200
AIST 1 06 Mar 16:46:15 16:48:07 13° 65° (ENE) 16:50:12
STARS 06 Mar 17:00:13 17:02:40 14° 297° (WNW) 17:04:56 437.465
AO-7 06 Mar 17:06:54 17:13:47 27° 268° (W) 17:20:25 29.400- 29.500
MOZHAYETS 4 06 Mar 17:07:34 17:12:12 64° 101° (E) 17:16:49
BEESAT 3 06 Mar 17:08:29 17:12:30 52° 308° (NW) 17:16:34 437.485
O/OREOS (USA 219) 06 Mar 17:11:21 17:13:59 15° 49° (NE) 17:16:46 437.305
Cubesat XI-IV 06 Mar 17:17:32 17:22:37 45° 70° (ENE) 17:27:45 437.490
CUTE-I 06 Mar 17:25:05 17:30:16 52° 71° (ENE) 17:35:30 437.470
YUBILEINY 06 Mar 17:38:13 17:46:04 34° 293° (WNW) 17:53:48 435.215
BEESAT 2 06 Mar 17:39:21 17:43:06 32° 313° (NW) 17:46:52 435.950
CUBESAT XI-V 06 Mar 17:43:47 17:45:35 12° 87° (E) 17:47:39 437.345
VERMONT LUNAR 06 Mar 17:48:06 17:51:31 55° 175° (S) 17:54:57 437.305
JAS-2 06 Mar 17:49:20 17:52:22 14° 278° (W) 17:55:12 435.910
STRAND 1 06 Mar 17:57:46 17:57:49 10° 85° (E) 17:58:14 437.568
AIST 2 06 Mar 18:00:35 18:04:44 48° 309° (NW) 18:08:56 435.215
AUBIESAT-1 06 Mar 18:02:41 18:06:46 39° 294° (WNW) 18:11:04 437.475
M-CUBED/EXP-1 PRIME 06 Mar 18:04:35 18:08:33 34° 294° (WNW) 18:12:42 437.505
PRISM 06 Mar 18:13:11 18:16:30 22° 94° (E) 18:19:51 437.425
AIST 1 06 Mar 18:21:58 18:26:21 62° 264° (W) 18:30:40
PHONESAT 2.4 06 Mar 18:23:12 18:26:46 54° 173° (S) 18:30:21 2401.200-2431.200
MOZHAYETS 4 06 Mar 18:46:16 18:48:58 15° 297° (WNW) 18:51:30
O/OREOS (USA 219) 06 Mar 18:49:25 18:54:00 70° 250° (WSW) 18:58:32 437.305
PCSat 06 Mar 18:52:15 18:55:40 18° 106° (ESE) 18:59:18 145.827
Cubesat XI-IV 06 Mar 18:58:32 19:02:57 25° 267° (W) 19:07:17 437.490
CUTE-I 06 Mar 19:06:34 19:10:42 22° 269° (W) 19:14:42 437.470
CUTE 1.7 + AOD 2 06 Mar 19:11:02 19:13:05 14° 64° (ENE) 19:15:19 437.475
CUBESAT XI-V 06 Mar 19:18:57 19:23:40 71° 285° (WNW) 19:28:19 437.345
GOMX 1 06 Mar 19:21:28 19:25:36 25° 68° (ENE) 19:29:40 467.674
VERMONT LUNAR 06 Mar 19:25:51 19:29:13 46° 192° (SSW) 19:32:34 437.305
HO-68 06 Mar 19:29:55 19:36:32 44° 65° (ENE) 19:43:16 435.675
STRAND 1 06 Mar 19:32:44 19:37:56 86° 104° (ESE) 19:43:04 437.568
DOVE 4 06 Mar 19:35:37 19:39:25 23° 68° (ENE) 19:43:11 437.250
AAUSAT CUBESAT 2 06 Mar 19:37:44 19:40:11 16° 65° (ENE) 19:42:49 437.432
BRITE-PL 06 Mar 19:37:56 19:43:17 51° 73° (ENE) 19:48:23 437.365/2234.400
COMPASS 1 06 Mar 19:43:13 19:46:16 21° 67° (ENE) 19:49:26 437.405
PRISM 06 Mar 19:48:15 19:52:04 33° 290° (WNW) 19:55:51 437.425
GONETS M04 06 Mar 19:58:28 20:02:40 15° 77° (ENE) 20:07:26
PHONESAT 2.4 06 Mar 20:01:30 20:05:02 49° 190° (S) 20:08:34 2401.200-2431.200
Oscar 11 06 Mar 20:02:53 20:05:21 16° 64° (ENE) 20:07:58 145.826/435.025
SEEDS 06 Mar 20:16:06 20:20:11 56° 74° (ENE) 20:24:18 437.485
DELFI C3 06 Mar 20:18:45 20:21:15 17° 66° (ENE) 20:23:53 145.870
CANX-2 06 Mar 20:26:25 20:30:38 85° 257° (WSW) 20:34:53 2200.000
PCSat 06 Mar 20:33:12 20:38:36 68° 303° (WNW) 20:44:02 145.827
DX 1 06 Mar 20:34:32 20:37:22 17° 64° (ENE) 20:40:20 434.975-435.025
CUBEBUG 2 06 Mar 20:38:33 20:42:14 27° 69° (ENE) 20:45:55 437.445
CUTE 1.7 + AOD 2 06 Mar 20:44:27 20:48:36 58° 260° (W) 20:52:46 437.475
CINEMA 3 06 Mar 20:47:00 20:51:37 60° 74° (ENE) 20:56:02 145.822/145.860
FUNcube-1 06 Mar 20:55:40 20:59:16 27° 69° (ENE) 21:02:53 145.935
UKube-1 06 Mar 20:57:21 21:01:00 27° 68° (ENE) 21:04:45 .
GOMX 1 06 Mar 20:58:29 21:03:33 44° 262° (W) 21:08:20 467.674
ZACube-1 06 Mar 20:58:29 21:02:12 29° 70° (ENE) 21:05:55 437.345
AISAT 06 Mar 20:59:11 21:01:24 14° 63° (ENE) 21:03:48 437.250
VERMONT LUNAR 06 Mar 21:04:15 21:06:40 17° 207° (SSW) 21:09:02 437.305
VELOX 1 06 Mar 21:06:05 21:08:41 16° 64° (ENE) 21:11:27 145.980
AAUSAT CUBESAT 2 06 Mar 21:11:31 21:15:31 47° 261° (W) 21:19:33 437.432
DOVE 4 06 Mar 21:12:10 21:17:00 44° 262° (W) 21:21:34 437.250
50 SAT 06 Mar 21:12:38 21:14:47 15° 65° (ENE) 21:17:06 437.505
STRAND 1 06 Mar 21:13:52 21:16:30 14° 301° (WNW) 21:18:52 437.568
BRITE-PL 06 Mar 21:17:39 21:22:03 23° 268° (W) 21:26:08 437.365/2234.400
HO-68 06 Mar 21:17:47 21:24:23 38° 264° (W) 21:30:56 435.675
COMPASS 1 06 Mar 21:17:59 21:21:48 35° 263° (W) 21:25:38 437.405
UWE-3 06 Mar 21:27:11 21:31:34 74° 75° (ENE) 21:35:51 435.000/436.395/437.385
RS-15 06 Mar 21:32:51 21:41:17 29° 105° (ESE) 21:50:12 29.354- 29.394
Oscar 11 06 Mar 21:36:57 21:41:09 53° 260° (W) 21:45:23 145.826/435.025
ESTCUBE 1 06 Mar 21:38:29 21:41:18 17° 64° (ENE) 21:44:17 437.505/2401.250
PHONESAT 2.4 06 Mar 21:40:18 21:43:04 20° 206° (SSW) 21:45:48 2401.200-2431.200
GONETS M04 06 Mar 21:49:34 21:58:13 79° 96° (E) 22:06:57
DELFI C3 06 Mar 21:52:19 21:56:09 42° 262° (W) 22:00:02 145.870
SEEDS 06 Mar 21:54:28 21:56:26 13° 272° (W) 21:58:13 437.485
HUMSAT D 06 Mar 22:01:16 22:05:26 75° 76° (ENE) 22:09:35 437.325/437.525
TIGRISAT 06 Mar 22:05:49 22:08:26 16° 91° (E) 22:11:14 435.000
DX 1 06 Mar 22:09:01 22:13:18 49° 260° (W) 22:17:35 434.975-435.025
CUBEBUG 2 06 Mar 22:15:01 22:18:55 29° 265° (W) 22:22:40 437.445
PCSat 06 Mar 22:20:07 22:23:09 14° 325° (NW) 22:26:00 145.827
CUBEBUG 1 06 Mar 22:21:00 22:25:07 39° 71° (ENE) 22:29:17 437.445
ANTELSAT 06 Mar 22:21:18 22:24:49 24° 94° (E) 22:28:26 437.575/2403.000
TISAT 1 06 Mar 22:26:17 22:27:04 11° 62° (ENE) 22:28:05 437.305
CINEMA 3 06 Mar 22:26:37 22:29:13 14° 271° (W) 22:31:34 145.822/145.860
BUGSAT 1 06 Mar 22:31:19 22:32:35 11° 88° (E) 22:34:05 437.445
FUNcube-1 06 Mar 22:31:51 22:35:36 27° 265° (W) 22:39:13 145.935
AISAT 06 Mar 22:33:03 22:37:32 67° 258° (WSW) 22:42:02 437.250
UKube-1 06 Mar 22:33:19 22:37:08 28° 264° (W) 22:40:54 .
ZACube-1 06 Mar 22:34:58 22:38:36 25° 266° (W) 22:42:07 437.345
SPROUT 06 Mar 22:36:56 22:39:25 16° 64° (ENE) 22:42:04 437.525
VELOX 1 06 Mar 22:40:26 22:44:51 58° 260° (W) 22:49:18 145.980
QB50P1 06 Mar 22:43:15 22:46:34 22° 93° (E) 22:49:55 145.935-145.965
50 SAT 06 Mar 22:45:38 22:49:27 46° 261° (W) 22:53:18 437.505
QB50P2 06 Mar 22:48:35 22:52:07 26° 94° (E) 22:55:42 145.880/145.840
DUCHIFAT 1 06 Mar 22:59:21 23:03:09 32° 96° (E) 23:06:58 145.980
UWE-3 06 Mar 23:08:03 23:08:41 10° 273° (W) 23:09:01 435.000/436.395/437.385
ESTCUBE 1 06 Mar 23:13:22 23:17:48 54° 260° (W) 23:22:18 437.505/2401.250
UNISAT 6 06 Mar 23:18:24 23:22:44 81° 282° (WNW) 23:27:07 437.425
POPSAT HIP 1 06 Mar 23:22:56 23:27:08 62° 101° (E) 23:31:17 437.405
POLYITAN 1 06 Mar 23:24:47 23:29:00 66° 101° (E) 23:33:11 437.675
DANDE 06 Mar 23:35:50 23:41:54 53° 98° (E) 23:46:27 436.750
CUSAT 1 06 Mar 23:38:44 23:44:25 69° 100° (E) 23:48:39 437.405
TIGRISAT 06 Mar 23:41:22 23:45:30 47° 288° (WNW) 23:49:41 435.000
RS-15 06 Mar 23:41:42 23:52:38 79° 307° (NW) 00:03:46 29.354- 29.394
NANOSAT C BR1 06 Mar 23:44:14 23:48:28 76° 285° (WNW) 23:52:40 145.865
GONETS M04 06 Mar 23:49:28 23:56:15 24° 298° (WNW) 00:02:45
BEESAT 3 06 Mar 23:49:39 23:52:25 17° 40° (NE) 23:55:16 437.485
ANTELSAT 06 Mar 23:57:49 00:01:40 31° 290° (WNW) 00:05:31 437.575/2403.000
TISAT 1 06 Mar 23:58:01 00:02:19 82° 256° (WSW) 00:06:37 437.305
CUBEBUG 1 06 Mar 23:58:16 00:01:41 21° 268° (W) 00:04:59 437.445
BUGSAT 1 07 Mar 00:04:29 00:08:35 60° 286° (WNW) 00:12:36 437.445
SWISSCUBE 07 Mar 00:08:29 00:12:17 25° 66° (ENE) 00:16:12 437.505
SPROUT 07 Mar 00:10:53 00:15:08 54° 260° (W) 00:19:25 437.525
BEESAT 07 Mar 00:16:04 00:20:00 27° 67° (ENE) 00:24:02 436.000
QB50P1 07 Mar 00:18:44 00:22:31 32° 290° (WNW) 00:26:15 145.935-145.965
BEESAT 2 07 Mar 00:19:59 00:23:31 26° 45° (NE) 00:27:03 435.950
QB50P2 07 Mar 00:24:23 00:28:02 28° 291° (WNW) 00:31:36 145.880/145.840
DUCHIFAT 1 07 Mar 00:35:32 00:38:52 22° 293° (WNW) 00:42:06 145.980
AIST 2 07 Mar 00:43:40 00:46:52 20° 41° (NE) 00:50:06 435.215
ITUPSAT 1 07 Mar 00:45:39 00:50:16 50° 71° (ENE) 00:54:56 437.325
KKS-1 07 Mar 00:51:27 00:52:57 12° 61° (ENE) 00:54:41 437.445
SO-50 07 Mar 01:00:23 01:04:59 80° 123° (ESE) 01:09:46 436.795
POPSAT HIP 1 07 Mar 01:00:29 01:02:35 13° 297° (WNW) 01:04:30 437.405
POLYITAN 1 07 Mar 01:02:35 01:04:27 12° 297° (WNW) 01:06:10 437.675
Oscar 19 07 Mar 01:21:03 01:25:38 33° 95° (E) 01:30:16 437.125/150
DANDE 07 Mar 01:21:11 01:25:16 19° 288° (WNW) 01:28:31 436.750
CUSAT 1 07 Mar 01:25:11 01:27:22 12° 290° (WNW) 01:29:07 437.405
BEESAT 3 07 Mar 01:26:50 01:30:57 63° 240° (WSW) 01:34:58 437.485
ITAMSAT 1 07 Mar 01:31:28 01:33:53 14° 87° (E) 01:36:35 435.822/435.867
Gurwin Techsat 1B 07 Mar 01:32:48 01:33:19 10° 85° (E) 01:34:13 435.225
SWISSCUBE 07 Mar 01:45:30 01:49:59 38° 263° (W) 01:54:28 437.505
YUBILEINY 07 Mar 01:49:35 01:56:57 29° 65° (ENE) 02:04:29 435.215
BEESAT 07 Mar 01:53:22 01:57:45 35° 263° (W) 02:02:07 436.000
RS-15 07 Mar 01:57:39 02:07:07 31° 335° (NNW) 02:16:41 29.354- 29.394
BEESAT 2 07 Mar 01:57:58 02:01:47 35° 244° (WSW) 02:05:30 435.950
STARS 07 Mar 02:20:01 02:24:22 60° 74° (ENE) 02:28:44 437.465
AIST 2 07 Mar 02:21:38 02:25:49 54° 241° (WSW) 02:29:55 435.215
KKS-1 07 Mar 02:24:34 02:29:03 80° 257° (WSW) 02:33:33 437.445
ITUPSAT 1 07 Mar 02:25:06 02:28:30 19° 269° (W) 02:31:46 437.325
SO-50 07 Mar 02:42:51 02:46:11 18° 323° (NW) 02:49:30 436.795
HORYU 2 07 Mar 02:45:28 02:47:04 12° 88° (E) 02:48:54 437.375
Oscar 19 07 Mar 03:00:26 03:04:58 32° 293° (WNW) 03:09:27 437.125/150
ITAMSAT 1 07 Mar 03:08:51 03:14:05 76° 286° (WNW) 03:19:17 435.822/435.867
Gurwin Techsat 1B 07 Mar 03:08:53 03:14:15 84° 103° (ESE) 03:19:35 435.225
JAS-2 07 Mar 03:09:43 03:13:29 15° 83° (E) 03:17:50 435.910
AO-7 07 Mar 03:13:56 03:19:31 20° 89° (E) 03:25:29 29.400- 29.500
AUBIESAT-1 07 Mar 03:18:35 03:21:26 26° 64° (ENE) 03:24:29 437.475
M-CUBED/EXP-1 PRIME 07 Mar 03:20:36 03:23:37 31° 65° (ENE) 03:26:48 437.505
